Miscellaneous Local Product
Issued by NWS North Platte, NE

Home | Current Version | Previous Version | Text Only | Print | Product List | Glossary On
Versions: 1 2 3 4 5 6 7 8 9 10 11 12 13 14 15 16 17 18 19 20 21 22 23 24 25 26 27 28 29 30 31 32 33 34 35 36 37 38 39 40 41 42 43 44 45 46 47 48 49 50
000
AXUS43 KLBF 032110
MISLBF


WESTERN AND NORTH CENTRAL NEBRASKA HOURLY WEATHER ROUNDUP
NATIONAL WEATHER SERVICE NORTH PLATTE NE
400 PM CDT FRI JUL 03 2015

***STATIONS NOT REPORTING VARIABLES SUCH AS SKY/WEATHER OR
PRESSURE ARE PROVIDED BY THE NEBRASKA DEPARTMENT OF
ROADS...RAWS...AND APRS NETWORKS...AND ARE NOT UNDER
NATIONAL WEATHER SERVICE QUALITY CONTROL***

...OBSERVATIONS IN AND NEAR THE EASTERN PANHANDLE OF NEBRASKA...

CITY           SKY/WX    TMP DP  RH WIND       PRES   REMARKS
PINE RIDGE     MOSUNNY   82  56  40 VRB3      30.04F
CHADRON        SUNNY     83  53  35 CALM      30.02F
ALLIANCE       SUNNY     80  57  45 SE5       30.06F
SIDNEY         MOSUNNY   83  56  39 NE7       30.09F
WHITECLAY        N/A     81  55  40 CALM        N/A
CRESCENT LAKE    N/A     82  53  36 W3          N/A
BIG SPRINGS      N/A     86  57  37 E3          N/A
$$

...OBSERVATIONS IN NORTH CENTRAL NEBRASKA...

CITY           SKY/WX    TMP DP  RH WIND       PRES   REMARKS
VALENTINE      PTSUNNY   81  59  47 S7        30.01F
THEDFORD       SUNNY     82  59  46 NE3       30.04S
AINSWORTH      MOSUNNY   81  60  48 E5        30.02F
O`NEILL        SUNNY     78  64  60 NW6       30.01S
ORD            MOSUNNY   81  59  47 SE5       29.99F
BROKEN BOW     MOSUNNY   81  61  50 SE5       30.01F
VALENTINE NWR    N/A     82  60  46 NE5         N/A
SPRINGVIEW       N/A     85  62  45 CALM        N/A
HALSEY           N/A     84  58  40 CALM        N/A
BREWSTER         N/A     87  60  39 E5          N/A
ROSE             N/A     92  71  50 SE6         N/A  HX  99
NEWPORT          N/A     81  61  50 CALM        N/A
SARGENT          N/A     81  61  50 CALM        N/A
CHAMBERS         N/A     85  61  44 CALM        N/A
EWING            N/A     79  67  66 SE3         N/A
$$

...OBSERVATIONS IN SOUTHWEST NEBRASKA AND FAR NORTHEAST COLORADO...

CITY           SKY/WX    TMP DP  RH WIND       PRES   REMARKS
WRAY           FAIR      90  52  27 SE10      30.05F
HOLYOKE        FAIR      88  52  29 E6        30.05F
IMPERIAL       SUNNY     86  53  32 VRB3      30.04F
OGALLALA       MOSUNNY   83  55  39 E6        30.04F
NORTH PLATTE   MOSUNNY   80  57  45 CALM      30.03S
MCCOOK         SUNNY     83  60  45 MISG      30.01F
LEXINGTON      MOSUNNY   81  61  51 NW3       30.02F
PAXTON           N/A     83  60  45 CALM        N/A
GOTHENBURG       N/A     81  57  43 E3          N/A
CALLAWAY         N/A     83  65  54 CALM        N/A
$$

...NORTH PLATTE AREA...

CITY           SKY/WX    TMP DP  RH WIND       PRES   REMARKS
AIRPORT        MOSUNNY   80  57  45 CALM      30.03S
DOWNTOWN         N/A     82  61  48 CALM        N/A
HILLCREST        N/A     81  58  45 CALM        N/A
$$

...SOME WEATHER OBSERVATIONS FROM AROUND THE REGION...

CITY           SKY/WX    TMP DP  RH WIND       PRES   REMARKS
DENVER         MOSUNNY   82  56  40 VRB3      30.12F
LARAMIE        SUNNY     81  36  19 VRB6      30.22F
CHEYENNE       MOSUNNY   78  55  44 S7        30.17F
SCOTTSBLUFF    SUNNY     84  54  35 MISG      30.05F
RAPID CITY     SUNNY     80  60  50 SE8       30.02F
PIERRE         SUNNY     80  62  54 SW3       29.96F HAZE
WINNER         FAIR      85  53  33 CALM      29.98F
SIOUX FALLS    PTSUNNY   77  63  61 W5        29.98F
OMAHA          MOSUNNY   76  56  49 CALM      29.98F
GRAND ISLAND   SUNNY     75  60  59 CALM      30.02F
KANSAS CITY    SUNNY     79  56  45 VRB5      29.96F
WICHITA        PTSUNNY   85  64  49 N13       29.95R
HAYS           MOSUNNY   82  59  44 N10G20    30.00F
LIBERAL        PTSUNNY   82  63  51 E17         N/A  THUNDER
GOODLAND       PTSUNNY   84  54  35 VRB3      30.05F
$$



USA.gov is the U.S. government's official web portal to all federal, state and local government web resources and services.